Time,TemperatureF,DewpointF,PressureIn,WindDirection,WindDirectionDegrees,WindSpeedMPH,WindSpeedGustMPH,Humidity,HourlyPrecipIn,Conditions,Clouds,dailyrainin,SoftwareType,DateUTC
2013-02-01 00:02:00,32.4,19.7,30.33,North,0,2.2,2.2,59,0.00,,,0.00,WUHU21623XXSP,2013-02-01 06:02:00,
2013-02-01 00:07:00,32.4,19.7,30.33,North,0,2.2,2.2,59,0.00,,,0.00,WUHU21623XXSP,2013-02-01 06:07:00,
2013-02-01 00:12:00,31.6,17.7,30.34,NNE,22,2.7,4.7,56,0.00,,,0.00,WUHU21623XXSP,2013-02-01 06:12:00,
2013-02-01 00:17:00,31.5,17.1,30.33,North,0,5.4,5.4,55,0.00,,,0.00,WUHU21623XXSP,2013-02-01 06:17:00,
2013-02-01 00:22:00,31.3,16.1,30.34,NNE,22,1.3,5.4,53,0.00,,,0.00,WUHU21623XXSP,2013-02-01 06:22:00,
2013-02-01 00:27:00,30.9,14.0,30.34,NW,315,9.2,9.2,49,0.00,,,0.00,WUHU21623XXSP,2013-02-01 06:27:00,
2013-02-01 00:32:00,30.7,11.8,30.34,NW,315,3.8,9.2,45,0.00,,,0.00,WUHU21623XXSP,2013-02-01 06:32:00,
2013-02-01 00:37:00,30.4,9.4,30.34,North,0,3.1,9.2,41,0.00,,,0.00,WUHU21623XXSP,2013-02-01 06:37:00,
2013-02-01 00:42:00,29.8,5.9,30.35,NNW,337,11.6,11.6,36,0.00,,,0.00,WUHU21623XXSP,2013-02-01 06:42:00,
2013-02-01 00:47:00,29.7,3.3,30.35,NW,315,3.4,11.6,32,0.00,,,0.00,WUHU21623XXSP,2013-02-01 06:47:00,
2013-02-01 00:52:00,29.5,1.8,30.35,NW,315,5.4,5.4,30,0.00,,,0.00,WUHU21623XXSP,2013-02-01 06:52:00,
2013-02-01 00:57:00,29.1,-2.8,30.35,West,270,4.9,5.6,25,0.00,,,0.00,WUHU21623XXSP,2013-02-01 06:57:00,
2013-02-01 01:02:00,28.9,-1.2,30.35,North,0,0.7,5.6,27,0.00,,,0.00,WUHU21623XXSP,2013-02-01 07:02:00,
2013-02-01 01:07:00,28.8,-0.5,30.35,NW,315,8.5,8.5,28,0.00,,,0.00,WUHU21623XXSP,2013-02-01 07:07:00,
2013-02-01 01:12:00,28.6,1.0,30.35,WNW,292,1.6,8.5,30,0.00,,,0.00,WUHU21623XXSP,2013-02-01 07:12:00,
2013-02-01 01:17:00,28.2,2.0,30.35,North,0,5.1,8.3,32,0.00,,,0.00,WUHU21623XXSP,2013-02-01 07:17:00,
2013-02-01 01:22:00,28.0,2.4,30.35,NW,315,5.1,8.7,34,0.00,,,0.00,WUHU21623XXSP,2013-02-01 07:22:00,
2013-02-01 01:27:00,27.7,3.4,30.35,NNW,337,3.8,8.7,35,0.00,,,0.00,WUHU21623XXSP,2013-02-01 07:27:00,
2013-02-01 01:32:00,27.5,3.8,30.35,NE,45,0.9,3.8,36,0.00,,,0.00,WUHU21623XXSP,2013-02-01 07:32:00,
2013-02-01 01:37:00,27.3,3.7,30.36,NW,315,6.5,6.5,36,0.00,,,0.00,WUHU21623XXSP,2013-02-01 07:37:00,
2013-02-01 01:42:00,27.1,4.1,30.36,NNW,337,0.0,6.5,37,0.00,,,0.00,WUHU21623XXSP,2013-02-01 07:42:00,
2013-02-01 01:47:00,26.8,4.4,30.36,NW,315,2.2,5.6,38,0.00,,,0.00,WUHU21623XXSP,2013-02-01 07:47:00,
2013-02-01 01:52:00,26.6,4.9,30.37,North,0,5.8,5.8,39,0.00,,,0.00,WUHU21623XXSP,2013-02-01 07:52:00,
2013-02-01 01:57:00,26.4,5.4,30.37,NNW,337,4.0,5.8,40,0.00,,,0.00,WUHU21623XXSP,2013-02-01 07:57:00,
2013-02-01 02:02:00,26.2,5.2,30.36,North,0,1.6,4.0,40,0.00,,,0.00,WUHU21623XXSP,2013-02-01 08:02:00,
2013-02-01 02:07:00,26.1,5.1,30.37,NW,315,0.9,3.4,40,0.00,,,0.00,WUHU21623XXSP,2013-02-01 08:07:00,
2013-02-01 02:12:00,25.7,4.7,30.36,NNW,337,3.6,3.6,40,0.00,,,0.00,WUHU21623XXSP,2013-02-01 08:12:00,
2013-02-01 02:17:00,25.7,4.7,30.36,West,270,4.9,4.9,40,0.00,,,0.00,WUHU21623XXSP,2013-02-01 08:17:00,
2013-02-01 02:22:00,25.5,5.1,30.37,WNW,292,1.3,4.9,41,0.00,,,0.00,WUHU21623XXSP,2013-02-01 08:22:00,
2013-02-01 02:27:00,25.5,5.1,30.37,NW,315,5.1,5.1,41,0.00,,,0.00,WUHU21623XXSP,2013-02-01 08:27:00,
2013-02-01 02:32:00,25.2,5.2,30.38,NW,315,5.6,5.6,42,0.00,,,0.00,WUHU21623XXSP,2013-02-01 08:32:00,
2013-02-01 02:37:00,25.0,5.1,30.38,NW,315,3.1,5.6,42,0.00,,,0.00,WUHU21623XXSP,2013-02-01 08:37:00,
2013-02-01 02:42:00,25.0,5.1,30.38,NW,315,5.4,5.4,42,0.00,,,0.00,WUHU21623XXSP,2013-02-01 08:42:00,
2013-02-01 02:47:00,25.0,5.1,30.37,WNW,292,2.0,5.4,42,0.00,,,0.00,WUHU21623XXSP,2013-02-01 08:47:00,
2013-02-01 02:52:00,25.0,5.5,30.38,NNE,22,5.6,5.6,43,0.00,,,0.00,WUHU21623XXSP,2013-02-01 08:52:00,
2013-02-01 02:57:00,24.6,5.2,30.38,NNW,337,3.1,5.6,43,0.00,,,0.00,WUHU21623XXSP,2013-02-01 08:57:00,
2013-02-01 03:02:00,24.4,5.5,30.38,NNW,337,2.2,3.1,44,0.00,,,0.00,WUHU21623XXSP,2013-02-01 09:02:00,
2013-02-01 03:07:00,24.4,5.5,30.38,NNW,337,1.8,2.2,44,0.00,,,0.00,WUHU21623XXSP,2013-02-01 09:07:00,
2013-02-01 03:12:00,24.3,5.4,30.38,NW,315,0.0,1.8,44,0.00,,,0.00,WUHU21623XXSP,2013-02-01 09:12:00,
2013-02-01 03:17:00,24.3,5.4,30.38,NW,315,3.4,3.4,44,0.00,,,0.00,WUHU21623XXSP,2013-02-01 09:17:00,
2013-02-01 03:22:00,24.1,5.7,30.38,WSW,247,2.5,3.4,45,0.00,,,0.00,WUHU21623XXSP,2013-02-01 09:22:00,
2013-02-01 03:27:00,23.9,5.5,30.38,NNW,337,0.0,3.8,45,0.00,,,0.00,WUHU21623XXSP,2013-02-01 09:27:00,
2013-02-01 03:32:00,23.7,5.4,30.39,North,0,1.3,3.8,45,0.00,,,0.00,WUHU21623XXSP,2013-02-01 09:32:00,
2013-02-01 03:37:00,23.7,5.4,30.39,WNW,292,0.0,1.6,45,0.00,,,0.00,WUHU21623XXSP,2013-02-01 09:37:00,
2013-02-01 03:42:00,23.5,5.2,30.40,NW,315,0.0,1.3,45,0.00,,,0.00,WUHU21623XXSP,2013-02-01 09:42:00,
2013-02-01 03:47:00,23.4,5.1,30.40,NE,45,5.4,5.4,45,0.00,,,0.00,WUHU21623XXSP,2013-02-01 09:47:00,
2013-02-01 03:52:00,23.4,5.5,30.39,NNE,22,0.0,5.4,46,0.00,,,0.00,WUHU21623XXSP,2013-02-01 09:52:00,
2013-02-01 03:57:00,23.4,5.5,30.40,NE,45,0.0,0.9,46,0.00,,,0.00,WUHU21623XXSP,2013-02-01 09:57:00,
2013-02-01 04:02:00,23.2,5.4,30.40,NNE,22,3.6,3.6,46,0.00,,,0.00,WUHU21623XXSP,2013-02-01 10:02:00,
2013-02-01 04:07:00,23.2,5.4,30.41,NNE,22,3.6,3.6,46,0.00,,,0.00,WUHU21623XXSP,2013-02-01 10:07:00,
2013-02-01 04:12:00,23.2,5.4,30.41,WNW,292,0.0,3.6,46,0.00,,,0.00,WUHU21623XXSP,2013-02-01 10:12:00,
2013-02-01 04:17:00,23.2,5.4,30.40,NNW,337,0.0,0.7,46,0.00,,,0.00,WUHU21623XXSP,2013-02-01 10:17:00,
2013-02-01 04:22:00,22.8,5.5,30.41,North,0,0.0,0.0,47,0.00,,,0.00,WUHU21623XXSP,2013-02-01 10:22:00,
2013-02-01 04:27:00,22.8,5.5,30.41,NE,45,0.0,0.0,47,0.00,,,0.00,WUHU21623XXSP,2013-02-01 10:27:00,
2013-02-01 04:32:00,22.6,5.3,30.41,North,0,1.8,2.0,47,0.00,,,0.00,WUHU21623XXSP,2013-02-01 10:32:00,
2013-02-01 04:37:00,22.6,5.3,30.41,North,0,0.0,2.9,47,0.00,,,0.00,WUHU21623XXSP,2013-02-01 10:37:00,
2013-02-01 04:42:00,22.6,5.3,30.41,North,0,0.0,2.9,47,0.00,,,0.00,WUHU21623XXSP,2013-02-01 10:42:00,
2013-02-01 04:47:00,22.5,5.6,30.42,NE,45,1.8,1.8,48,0.00,,,0.00,WUHU21623XXSP,2013-02-01 10:47:00,
2013-02-01 04:52:00,22.5,5.6,30.42,East,90,0.4,1.8,48,0.00,,,0.00,WUHU21623XXSP,2013-02-01 10:52:00,
2013-02-01 04:57:00,22.3,5.5,30.42,NNW,337,4.3,4.3,48,0.00,,,0.00,WUHU21623XXSP,2013-02-01 10:57:00,
2013-02-01 05:02:00,22.3,6.0,30.43,North,0,0.0,4.3,49,0.00,,,0.00,WUHU21623XXSP,2013-02-01 11:02:00,
2013-02-01 05:07:00,22.1,5.8,30.43,North,0,0.0,1.1,49,0.00,,,0.00,WUHU21623XXSP,2013-02-01 11:07:00,
2013-02-01 05:12:00,21.9,5.6,30.42,NW,315,3.6,3.6,49,0.00,,,0.00,WUHU21623XXSP,2013-02-01 11:12:00,
2013-02-01 05:17:00,21.9,5.6,30.43,NE,45,0.0,3.6,49,0.00,,,0.00,WUHU21623XXSP,2013-02-01 11:17:00,
2013-02-01 05:22:00,21.7,5.4,30.43,NE,45,1.8,1.8,49,0.00,,,0.00,WUHU21623XXSP,2013-02-01 11:22:00,
2013-02-01 05:27:00,21.6,5.2,30.43,NW,315,1.8,2.7,49,0.00,,,0.00,WUHU21623XXSP,2013-02-01 11:27:00,
2013-02-01 05:32:00,21.6,5.2,30.44,North,0,1.1,2.7,49,0.00,,,0.00,WUHU21623XXSP,2013-02-01 11:32:00,
2013-02-01 05:37:00,21.7,4.9,30.44,North,0,0.0,4.5,48,0.00,,,0.00,WUHU21623XXSP,2013-02-01 11:37:00,
2013-02-01 05:42:00,21.6,4.8,30.44,NNW,337,2.5,4.5,48,0.00,,,0.00,WUHU21623XXSP,2013-02-01 11:42:00,
2013-02-01 05:47:00,21.6,4.8,30.45,North,0,0.0,2.5,48,0.00,,,0.00,WUHU21623XXSP,2013-02-01 11:47:00,
2013-02-01 05:52:00,21.6,4.8,30.45,NNE,22,1.3,1.3,48,0.00,,,0.00,WUHU21623XXSP,2013-02-01 11:52:00,
2013-02-01 05:57:00,21.4,4.6,30.45,North,0,0.0,1.3,48,0.00,,,0.00,WUHU21623XXSP,2013-02-01 11:57:00,
2013-02-01 06:02:00,21.0,4.3,30.45,North,0,2.2,2.2,48,0.00,,,0.00,WUHU21623XXSP,2013-02-01 12:02:00,
2013-02-01 06:07:00,21.0,4.7,30.45,North,0,3.8,3.8,49,0.00,,,0.00,WUHU21623XXSP,2013-02-01 12:07:00,
2013-02-01 06:12:00,21.0,4.7,30.44,NNE,22,2.5,3.8,49,0.00,,,0.00,WUHU21623XXSP,2013-02-01 12:12:00,
2013-02-01 06:17:00,20.8,5.0,30.45,North,0,2.2,2.5,50,0.00,,,0.00,WUHU21623XXSP,2013-02-01 12:17:00,
2013-02-01 06:22:00,20.8,5.0,30.44,North,0,1.8,2.2,50,0.00,,,0.00,WUHU21623XXSP,2013-02-01 12:22:00,
2013-02-01 06:27:00,20.7,4.9,30.44,NE,45,3.8,3.8,50,0.00,,,0.00,WUHU21623XXSP,2013-02-01 12:27:00,
2013-02-01 06:32:00,20.5,4.7,30.45,North,0,0.0,3.8,50,0.00,,,0.00,WUHU21623XXSP,2013-02-01 12:32:00,
2013-02-01 06:37:00,20.3,4.6,30.45,NNE,22,0.0,0.7,50,0.00,,,0.00,WUHU21623XXSP,2013-02-01 12:37:00,
2013-02-01 06:42:00,20.1,4.4,30.45,North,0,1.6,2.5,50,0.00,,,0.00,WUHU21623XXSP,2013-02-01 12:42:00,
2013-02-01 06:47:00,20.1,4.4,30.46,North,0,0.0,5.4,50,0.00,,,0.00,WUHU21623XXSP,2013-02-01 12:47:00,
2013-02-01 06:52:00,19.9,4.2,30.46,NE,45,0.0,5.4,50,0.00,,,0.00,WUHU21623XXSP,2013-02-01 12:52:00,
2013-02-01 06:57:00,19.9,3.8,30.46,NE,45,0.0,1.8,49,0.00,,,0.00,WUHU21623XXSP,2013-02-01 12:57:00,
2013-02-01 07:02:00,19.8,3.6,30.47,NE,45,0.0,1.6,49,0.00,,,0.00,WUHU21623XXSP,2013-02-01 13:02:00,
2013-02-01 07:07:00,19.6,3.4,30.47,NNE,22,0.0,1.6,49,0.00,,,0.00,WUHU21623XXSP,2013-02-01 13:07:00,
2013-02-01 07:12:00,19.6,3.4,30.47,NW,315,0.0,0.0,49,0.00,,,0.00,WUHU21623XXSP,2013-02-01 13:12:00,
2013-02-01 07:17:00,19.6,3.4,30.47,NW,315,0.0,0.0,49,0.00,,,0.00,WUHU21623XXSP,2013-02-01 13:17:00,
2013-02-01 07:22:00,19.6,3.4,30.48,North,0,0.0,0.0,49,0.00,,,0.00,WUHU21623XXSP,2013-02-01 13:22:00,
2013-02-01 07:27:00,19.8,3.6,30.48,NNE,22,0.0,2.2,49,0.00,,,0.00,WUHU21623XXSP,2013-02-01 13:27:00,
2013-02-01 07:32:00,19.8,4.1,30.48,NNE,22,0.0,2.2,50,0.00,,,0.00,WUHU21623XXSP,2013-02-01 13:32:00,
2013-02-01 07:37:00,19.8,4.1,30.48,NNE,22,0.0,0.0,50,0.00,,,0.00,WUHU21623XXSP,2013-02-01 13:37:00,
2013-02-01 07:42:00,19.9,4.2,30.49,NNE,22,0.0,0.0,50,0.00,,,0.00,WUHU21623XXSP,2013-02-01 13:42:00,
2013-02-01 07:47:00,20.1,3.9,30.49,NNW,337,0.0,1.8,49,0.00,,,0.00,WUHU21623XXSP,2013-02-01 13:47:00,
2013-02-01 07:52:00,20.3,4.6,30.49,North,0,0.0,1.8,50,0.00,,,0.00,WUHU21623XXSP,2013-02-01 13:52:00,
2013-02-01 07:57:00,20.5,4.7,30.49,North,0,1.1,1.1,50,0.00,,,0.00,WUHU21623XXSP,2013-02-01 13:57:00,
2013-02-01 08:02:00,20.7,4.4,30.49,NNW,337,0.0,1.8,49,0.00,,,0.00,WUHU21623XXSP,2013-02-01 14:02:00,
2013-02-01 08:07:00,20.8,4.1,30.50,NNE,22,0.0,2.7,48,0.00,,,0.00,WUHU21623XXSP,2013-02-01 14:07:00,
2013-02-01 08:12:00,20.8,4.1,30.50,North,0,2.7,2.7,48,0.00,,,0.00,WUHU21623XXSP,2013-02-01 14:12:00,
2013-02-01 08:17:00,21.2,4.4,30.50,North,0,0.0,2.7,48,0.00,,,0.00,WUHU21623XXSP,2013-02-01 14:17:00,
2013-02-01 08:22:00,21.4,4.1,30.51,NNW,337,4.3,4.5,47,0.00,,,0.00,WUHU21623XXSP,2013-02-01 14:22:00,
2013-02-01 08:27:00,21.4,3.6,30.50,North,0,0.7,4.5,46,0.00,,,0.00,WUHU21623XXSP,2013-02-01 14:27:00,
2013-02-01 08:32:00,21.4,3.6,30.51,ENE,67,0.0,1.8,46,0.00,,,0.00,WUHU21623XXSP,2013-02-01 14:32:00,
2013-02-01 08:37:00,21.7,4.5,30.50,NE,45,2.0,5.8,47,0.00,,,0.00,WUHU21623XXSP,2013-02-01 14:37:00,
2013-02-01 08:42:00,22.1,4.8,30.50,NE,45,0.0,5.8,47,0.00,,,0.00,WUHU21623XXSP,2013-02-01 14:42:00,
2013-02-01 08:47:00,22.5,5.2,30.51,NE,45,3.8,3.8,47,0.00,,,0.00,WUHU21623XXSP,2013-02-01 14:47:00,
2013-02-01 08:52:00,22.8,5.5,30.51,NNE,22,0.0,3.8,47,0.00,,,0.00,WUHU21623XXSP,2013-02-01 14:52:00,
2013-02-01 08:57:00,22.8,5.0,30.51,NNE,22,0.0,3.8,46,0.00,,,0.00,WUHU21623XXSP,2013-02-01 14:57:00,
2013-02-01 09:02:00,23.0,5.4,30.51,North,7,1.7,3.8,46,0.00,,,0.00,WUHU21623XXSP,2013-02-01 15:02:00,
2013-02-01 09:07:00,23.0,4.2,30.51,North,0,0.7,2.2,44,0.00,,,0.00,WUHU21623XXSP,2013-02-01 15:07:00,
2013-02-01 09:12:00,23.2,3.9,30.51,North,0,0.0,4.0,43,0.00,,,0.00,WUHU21623XXSP,2013-02-01 15:12:00,
2013-02-01 09:17:00,23.2,3.9,30.51,NE,45,0.0,4.0,43,0.00,,,0.00,WUHU21623XXSP,2013-02-01 15:17:00,
2013-02-01 09:22:00,23.5,4.2,30.51,NE,45,3.6,3.6,43,0.00,,,0.00,WUHU21623XXSP,2013-02-01 15:22:00,
2013-02-01 09:27:00,23.9,4.6,30.51,North,0,4.9,4.9,43,0.00,,,0.00,WUHU21623XXSP,2013-02-01 15:27:00,
2013-02-01 09:32:00,24.1,4.2,30.52,NE,45,2.5,4.9,42,0.00,,,0.00,WUHU21623XXSP,2013-02-01 15:32:00,
2013-02-01 09:37:00,24.3,3.9,30.52,North,0,0.0,2.7,41,0.00,,,0.00,WUHU21623XXSP,2013-02-01 15:37:00,
2013-02-01 09:42:00,24.4,4.1,30.52,NE,45,0.2,3.6,41,0.00,,,0.00,WUHU21623XXSP,2013-02-01 15:42:00,
2013-02-01 09:47:00,25.0,4.2,30.52,East,90,3.6,3.6,41,0.00,,,0.00,WUHU21623XXSP,2013-02-01 15:47:00,
2013-02-01 09:53:00,25.7,5.2,30.52,NNE,22,2.2,3.6,41,0.00,,,0.00,WUHU21623XXSP,2013-02-01 15:53:00,
2013-02-01 09:58:00,26.1,5.5,30.53,NE,45,2.5,6.5,41,0.00,,,0.00,WUHU21623XXSP,2013-02-01 15:58:00,
2013-02-01 10:03:00,26.4,5.4,30.53,NNW,337,3.6,6.5,40,0.00,,,0.00,WUHU21623XXSP,2013-02-01 16:03:00,
2013-02-01 10:08:00,26.2,4.6,30.53,East,90,3.8,3.8,39,0.00,,,0.00,WUHU21623XXSP,2013-02-01 16:08:00,
2013-02-01 10:13:00,26.8,5.1,30.53,NNE,22,0.4,3.8,39,0.00,,,0.00,WUHU21623XXSP,2013-02-01 16:13:00,
2013-02-01 10:18:00,27.1,5.4,30.54,ENE,67,0.0,0.4,39,0.00,,,0.00,WUHU21623XXSP,2013-02-01 16:18:00,
2013-02-01 10:23:00,27.5,5.7,30.53,ENE,67,1.6,2.9,39,0.00,,,0.00,WUHU21623XXSP,2013-02-01 16:23:00,
2013-02-01 10:28:00,27.9,6.0,30.53,NW,315,3.1,3.1,39,0.00,,,0.00,WUHU21623XXSP,2013-02-01 16:28:00,
2013-02-01 10:33:00,28.0,4.9,30.52,NE,45,0.0,3.4,37,0.00,,,0.00,WUHU21623XXSP,2013-02-01 16:33:00,
2013-02-01 10:38:00,28.0,4.3,30.52,NNW,337,3.8,3.8,36,0.00,,,0.00,WUHU21623XXSP,2013-02-01 16:38:00,
2013-02-01 10:43:00,27.7,3.5,30.52,WNW,292,0.0,3.8,34,0.00,,,0.00,WUHU21623XXSP,2013-02-01 16:43:00,
2013-02-01 10:48:00,28.4,4.6,30.52,East,90,2.9,3.4,36,0.00,,,0.00,WUHU21623XXSP,2013-02-01 16:48:00,
2013-02-01 10:53:00,29.3,6.1,30.52,ENE,67,3.8,3.8,37,0.00,,,0.00,WUHU21623XXSP,2013-02-01 16:53:00,
2013-02-01 10:58:00,30.4,7.1,30.52,ENE,67,0.9,3.8,37,0.00,,,0.00,WUHU21623XXSP,2013-02-01 16:58:00,
2013-02-01 11:03:00,32.0,9.1,30.51,ENE,67,3.4,6.5,38,0.00,,,0.00,WUHU21623XXSP,2013-02-01 17:03:00,
2013-02-01 11:08:00,32.7,9.2,30.51,ESE,112,4.3,6.5,37,0.00,,,0.00,WUHU21623XXSP,2013-02-01 17:08:00,
2013-02-01 11:13:00,33.3,8.4,30.51,NE,45,5.1,5.1,35,0.00,,,0.00,WUHU21623XXSP,2013-02-01 17:13:00,
2013-02-01 11:18:00,33.6,6.8,30.51,NNE,22,0.9,5.1,32,0.00,,,0.00,WUHU21623XXSP,2013-02-01 17:18:00,
2013-02-01 11:23:00,33.4,-0.8,30.51,North,0,1.8,4.0,23,0.00,,,0.00,WUHU21623XXSP,2013-02-01 17:23:00,
2013-02-01 11:28:00,32.5,-5.2,30.51,WNW,292,0.2,1.8,19,0.00,,,0.00,WUHU21623XXSP,2013-02-01 17:28:00,
2013-02-01 11:33:00,32.4,-5.3,30.51,NE,45,2.2,2.2,19,0.00,,,0.00,WUHU21623XXSP,2013-02-01 17:33:00,
2013-02-01 11:38:00,32.4,-5.3,30.50,SSW,202,0.0,2.2,19,0.00,,,0.00,WUHU21623XXSP,2013-02-01 17:38:00,
2013-02-01 11:43:00,32.4,-5.3,30.51,SE,135,0.9,3.1,19,0.00,,,0.00,WUHU21623XXSP,2013-02-01 17:43:00,
2013-02-01 11:48:00,32.4,-5.3,30.50,North,0,1.8,3.1,19,0.00,,,0.00,WUHU21623XXSP,2013-02-01 17:48:00,
2013-02-01 11:53:00,32.5,-5.2,30.50,WNW,292,0.0,2.7,19,0.00,,,0.00,WUHU21623XXSP,2013-02-01 17:53:00,
2013-02-01 11:58:00,33.3,-4.6,30.50,East,90,0.0,2.7,19,0.00,,,0.00,WUHU21623XXSP,2013-02-01 17:58:00,
2013-02-01 12:03:00,34.2,-3.8,30.50,NNE,22,5.8,5.8,19,0.00,,,0.00,WUHU21623XXSP,2013-02-01 18:03:00,
2013-02-01 12:08:00,34.7,-3.4,30.50,NE,45,3.4,5.8,19,0.00,,,0.00,WUHU21623XXSP,2013-02-01 18:08:00,
2013-02-01 12:13:00,35.4,-2.8,30.50,ENE,67,2.0,3.4,19,0.00,,,0.00,WUHU21623XXSP,2013-02-01 18:13:00,
2013-02-01 12:18:00,35.8,-2.5,30.49,South,180,0.0,3.4,19,0.00,,,0.00,WUHU21623XXSP,2013-02-01 18:18:00,
2013-02-01 12:23:00,36.1,-2.3,30.49,ESE,112,1.8,1.8,19,0.00,,,0.00,WUHU21623XXSP,2013-02-01 18:23:00,
2013-02-01 12:28:00,37.0,-1.5,30.48,SE,135,2.2,4.3,19,0.00,,,0.00,WUHU21623XXSP,2013-02-01 18:28:00,
2013-02-01 12:33:00,37.8,-0.8,30.48,SE,135,4.7,4.7,19,0.00,,,0.00,WUHU21623XXSP,2013-02-01 18:33:00,
2013-02-01 12:38:00,38.1,-0.6,30.47,ESE,112,3.6,4.7,19,0.00,,,0.00,WUHU21623XXSP,2013-02-01 18:38:00,
2013-02-01 12:43:00,38.3,-0.4,30.46,ESE,112,2.9,6.3,19,0.00,,,0.00,WUHU21623XXSP,2013-02-01 18:43:00,
2013-02-01 12:48:00,38.7,-0.1,30.46,SE,135,4.3,6.3,19,0.00,,,0.00,WUHU21623XXSP,2013-02-01 18:48:00,
2013-02-01 12:53:00,38.8,0.0,30.46,SSE,157,5.8,5.8,19,0.00,,,0.00,WUHU21623XXSP,2013-02-01 18:53:00,
2013-02-01 12:58:00,39.2,0.3,30.46,NE,45,1.6,5.8,19,0.00,,,0.00,WUHU21623XXSP,2013-02-01 18:58:00,
2013-02-01 13:03:00,38.8,0.0,30.46,NE,45,2.5,2.5,19,0.00,,,0.00,WUHU21623XXSP,2013-02-01 19:03:00,
2013-02-01 13:08:00,39.0,0.2,30.45,SE,135,2.2,2.5,19,0.00,,,0.00,WUHU21623XXSP,2013-02-01 19:08:00,
2013-02-01 13:13:00,39.0,0.2,30.45,North,0,0.0,4.3,19,0.00,,,0.00,WUHU21623XXSP,2013-02-01 19:13:00,
2013-02-01 13:18:00,38.8,0.0,30.45,SSE,157,4.5,4.5,19,0.00,,,0.00,WUHU21623XXSP,2013-02-01 19:18:00,
2013-02-01 13:23:00,38.8,0.0,30.45,North,0,4.9,4.9,19,0.00,,,0.00,WUHU21623XXSP,2013-02-01 19:23:00,
2013-02-01 13:28:00,37.9,-0.8,30.45,NW,315,0.2,4.9,19,0.00,,,0.00,WUHU21623XXSP,2013-02-01 19:28:00,
2013-02-01 13:33:00,37.6,-1.0,30.44,NE,45,0.0,4.7,19,0.00,,,0.00,WUHU21623XXSP,2013-02-01 19:33:00,
2013-02-01 13:38:00,38.3,-0.4,30.44,NNE,22,2.0,3.1,19,0.00,,,0.00,WUHU21623XXSP,2013-02-01 19:38:00,
2013-02-01 13:43:00,39.7,0.7,30.44,NE,45,0.0,4.9,19,0.00,,,0.00,WUHU21623XXSP,2013-02-01 19:43:00,
2013-02-01 13:48:00,39.9,0.9,30.44,SSW,202,0.0,4.9,19,0.00,,,0.00,WUHU21623XXSP,2013-02-01 19:48:00,
2013-02-01 13:53:00,39.6,0.7,30.44,NNE,22,0.0,2.9,19,0.00,,,0.00,WUHU21623XXSP,2013-02-01 19:53:00,
2013-02-01 13:58:00,39.4,0.5,30.44,ESE,112,3.6,3.6,19,0.00,,,0.00,WUHU21623XXSP,2013-02-01 19:58:00,
2013-02-01 14:03:00,39.4,0.5,30.44,SSE,157,1.3,3.6,19,0.00,,,0.00,WUHU21623XXSP,2013-02-01 20:03:00,
2013-02-01 14:08:00,39.6,0.7,30.43,ESE,112,2.9,2.9,19,0.00,,,0.00,WUHU21623XXSP,2013-02-01 20:08:00,
2013-02-01 14:13:00,39.9,0.9,30.43,South,180,3.1,5.1,19,0.00,,,0.00,WUHU21623XXSP,2013-02-01 20:13:00,
2013-02-01 14:18:00,39.6,0.7,30.43,SSW,202,0.0,5.1,19,0.00,,,0.00,WUHU21623XXSP,2013-02-01 20:18:00,
2013-02-01 14:23:00,39.0,0.2,30.43,NNW,337,0.7,1.3,19,0.00,,,0.00,WUHU21623XXSP,2013-02-01 20:23:00,
2013-02-01 14:28:00,38.7,-0.1,30.42,North,0,6.0,6.0,19,0.00,,,0.00,WUHU21623XXSP,2013-02-01 20:28:00,
2013-02-01 14:33:00,38.1,-0.6,30.42,NW,315,0.0,6.0,19,0.00,,,0.00,WUHU21623XXSP,2013-02-01 20:33:00,
2013-02-01 14:38:00,38.1,-0.6,30.42,East,90,0.0,4.0,19,0.00,,,0.00,WUHU21623XXSP,2013-02-01 20:38:00,
2013-02-01 14:43:00,38.3,-0.4,30.41,North,0,1.1,4.0,19,0.00,,,0.00,WUHU21623XXSP,2013-02-01 20:43:00,
2013-02-01 14:48:00,38.3,-0.4,30.41,NNE,22,0.0,1.8,19,0.00,,,0.00,WUHU21623XXSP,2013-02-01 20:48:00,
2013-02-01 14:53:00,38.8,0.0,30.41,SE,135,3.4,4.9,19,0.00,,,0.00,WUHU21623XXSP,2013-02-01 20:53:00,
2013-02-01 14:58:00,39.2,0.3,30.41,ESE,112,2.0,4.9,19,0.00,,,0.00,WUHU21623XXSP,2013-02-01 20:58:00,
2013-02-01 15:03:00,39.9,0.9,30.40,ESE,112,0.0,3.8,19,0.00,,,0.00,WUHU21623XXSP,2013-02-01 21:03:00,
2013-02-01 15:08:00,40.5,1.4,30.40,SE,135,0.0,3.4,19,0.00,,,0.00,WUHU21623XXSP,2013-02-01 21:08:00,
2013-02-01 15:13:00,41.2,2.0,30.40,ESE,112,5.4,5.4,19,0.00,,,0.00,WUHU21623XXSP,2013-02-01 21:13:00,
2013-02-01 15:18:00,41.5,2.2,30.40,ENE,67,3.1,5.4,19,0.00,,,0.00,WUHU21623XXSP,2013-02-01 21:18:00,
2013-02-01 15:23:00,42.1,2.7,30.39,NE,45,0.0,4.3,19,0.00,,,0.00,WUHU21623XXSP,2013-02-01 21:23:00,
2013-02-01 15:28:00,42.1,2.7,30.39,ENE,67,2.7,2.7,19,0.00,,,0.00,WUHU21623XXSP,2013-02-01 21:28:00,
2013-02-01 15:33:00,42.8,3.3,30.39,ESE,112,4.5,4.5,19,0.00,,,0.00,WUHU21623XXSP,2013-02-01 21:33:00,
2013-02-01 15:38:00,42.8,3.3,30.40,SE,135,3.1,4.5,19,0.00,,,0.00,WUHU21623XXSP,2013-02-01 21:38:00,
2013-02-01 15:43:00,42.4,3.0,30.40,South,180,0.0,3.8,19,0.00,,,0.00,WUHU21623XXSP,2013-02-01 21:43:00,
2013-02-01 15:48:00,42.4,3.0,30.40,SE,135,0.0,4.9,19,0.00,,,0.00,WUHU21623XXSP,2013-02-01 21:48:00,
2013-02-01 15:53:00,42.4,3.0,30.40,East,90,2.9,4.9,19,0.00,,,0.00,WUHU21623XXSP,2013-02-01 21:53:00,
2013-02-01 15:58:00,42.4,3.0,30.40,SSE,157,3.1,4.9,19,0.00,,,0.00,WUHU21623XXSP,2013-02-01 21:58:00,
2013-02-01 16:03:00,43.2,3.6,30.40,ESE,112,3.6,4.9,19,0.00,,,0.00,WUHU21623XXSP,2013-02-01 22:03:00,
2013-02-01 16:08:00,43.2,3.6,30.40,ESE,112,0.0,4.9,19,0.00,,,0.00,WUHU21623XXSP,2013-02-01 22:08:00,
2013-02-01 16:13:00,43.3,3.7,30.39,ESE,112,2.9,4.9,19,0.00,,,0.00,WUHU21623XXSP,2013-02-01 22:13:00,
2013-02-01 16:18:00,43.5,3.9,30.39,ESE,112,0.0,4.9,19,0.00,,,0.00,WUHU21623XXSP,2013-02-01 22:18:00,
2013-02-01 16:23:00,43.7,4.1,30.39,SE,135,0.0,2.9,19,0.00,,,0.00,WUHU21623XXSP,2013-02-01 22:23:00,
2013-02-01 16:28:00,43.5,3.9,30.39,ESE,112,0.0,0.0,19,0.00,,,0.00,WUHU21623XXSP,2013-02-01 22:28:00,
2013-02-01 16:33:00,43.5,3.9,30.39,ESE,112,0.0,0.0,19,0.00,,,0.00,WUHU21623XXSP,2013-02-01 22:33:00,
2013-02-01 16:38:00,43.7,4.1,30.39,SE,135,2.0,2.7,19,0.00,,,0.00,WUHU21623XXSP,2013-02-01 22:38:00,
2013-02-01 16:43:00,43.5,3.9,30.39,SSE,157,0.0,2.7,19,0.00,,,0.00,WUHU21623XXSP,2013-02-01 22:43:00,
2013-02-01 16:48:00,43.3,3.7,30.38,SSE,157,1.6,2.2,19,0.00,,,0.00,WUHU21623XXSP,2013-02-01 22:48:00,
2013-02-01 16:53:00,43.3,3.7,30.38,SE,135,0.0,1.8,19,0.00,,,0.00,WUHU21623XXSP,2013-02-01 22:53:00,
2013-02-01 16:58:00,43.2,3.6,30.38,SE,135,0.0,1.8,19,0.00,,,0.00,WUHU21623XXSP,2013-02-01 22:58:00,
2013-02-01 17:03:00,42.8,3.3,30.38,SE,135,0.0,0.7,19,0.00,,,0.00,WUHU21623XXSP,2013-02-01 23:03:00,
2013-02-01 17:08:00,42.3,2.9,30.38,SE,135,1.3,1.3,19,0.00,,,0.00,WUHU21623XXSP,2013-02-01 23:08:00,
2013-02-01 17:13:00,41.4,2.2,30.37,SE,135,0.0,1.3,19,0.00,,,0.00,WUHU21623XXSP,2013-02-01 23:13:00,
2013-02-01 17:18:00,40.6,1.5,30.37,SE,135,0.0,0.0,19,0.00,,,0.00,WUHU21623XXSP,2013-02-01 23:18:00,
2013-02-01 17:23:00,40.1,1.1,30.37,SE,135,0.0,0.0,19,0.00,,,0.00,WUHU21623XXSP,2013-02-01 23:23:00,
2013-02-01 17:28:00,38.8,0.0,30.37,SE,135,0.0,0.0,19,0.00,,,0.00,WUHU21623XXSP,2013-02-01 23:28:00,
2013-02-01 17:33:00,38.1,-0.6,30.36,SE,135,0.0,0.0,19,0.00,,,0.00,WUHU21623XXSP,2013-02-01 23:33:00,
2013-02-01 17:38:00,37.4,-1.2,30.36,SE,135,0.7,0.7,19,0.00,,,0.00,WUHU21623XXSP,2013-02-01 23:38:00,
2013-02-01 17:43:00,36.3,-2.1,30.36,SE,135,0.0,0.7,19,0.00,,,0.00,WUHU21623XXSP,2013-02-01 23:43:00,
2013-02-01 17:48:00,35.8,-2.5,30.36,SE,135,0.0,0.0,19,0.00,,,0.00,WUHU21623XXSP,2013-02-01 23:48:00,
2013-02-01 17:53:00,35.1,-3.1,30.36,SE,135,0.0,0.0,19,0.00,,,0.00,WUHU21623XXSP,2013-02-01 23:53:00,
2013-02-01 17:58:00,34.3,-3.7,30.35,SE,135,0.0,0.0,19,0.00,,,0.00,WUHU21623XXSP,2013-02-01 23:58:00,
2013-02-01 18:03:00,34.0,-4.0,30.35,SE,135,0.0,0.0,19,0.00,,,0.00,WUHU21623XXSP,2013-02-02 00:03:00,
2013-02-01 18:09:00,33.4,-4.5,30.35,SE,135,0.0,0.0,19,0.00,,,0.00,WUHU21623XXSP,2013-02-02 00:09:00,
2013-02-01 18:14:00,32.7,-5.1,30.36,SE,135,0.0,0.0,19,0.00,,,0.00,WUHU21623XXSP,2013-02-02 00:14:00,
2013-02-01 18:19:00,32.4,-5.3,30.35,SE,135,0.0,0.0,19,0.00,,,0.00,WUHU21623XXSP,2013-02-02 00:19:00,
2013-02-01 18:23:00,31.6,-6.0,30.36,SE,135,0.0,0.0,19,0.00,,,0.00,WUHU21623XXSP,2013-02-02 00:23:00,
2013-02-01 18:28:00,31.5,-6.1,30.36,SE,135,0.0,0.0,19,0.00,,,0.00,WUHU21623XXSP,2013-02-02 00:28:00,
2013-02-01 18:33:00,30.9,-6.6,30.35,SE,135,0.0,0.0,19,0.00,,,0.00,WUHU21623XXSP,2013-02-02 00:33:00,
2013-02-01 18:38:00,30.4,-7.0,30.36,SE,135,0.0,0.0,19,0.00,,,0.00,WUHU21623XXSP,2013-02-02 00:38:00,
2013-02-01 18:43:00,29.8,-7.5,30.36,SE,135,0.0,0.0,19,0.00,,,0.00,WUHU21623XXSP,2013-02-02 00:43:00,
2013-02-01 18:48:00,29.5,-7.7,30.36,SE,135,0.0,0.0,19,0.00,,,0.00,WUHU21623XXSP,2013-02-02 00:48:00,
2013-02-01 18:54:00,29.1,-8.1,30.36,SE,135,0.0,0.0,19,0.00,,,0.00,WUHU21623XXSP,2013-02-02 00:54:00,
2013-02-01 18:59:00,28.8,-8.3,30.36,SE,135,0.0,0.0,19,0.00,,,0.00,WUHU21623XXSP,2013-02-02 00:59:00,
2013-02-01 19:04:00,28.6,-8.5,30.36,SE,135,0.0,0.0,19,0.00,,,0.00,WUHU21623XXSP,2013-02-02 01:04:00,
2013-02-01 19:09:00,27.9,-9.1,30.36,SE,135,0.0,0.0,19,0.00,,,0.00,WUHU21623XXSP,2013-02-02 01:09:00,
2013-02-01 19:14:00,27.7,-9.2,30.36,SE,135,0.0,0.0,19,0.00,,,0.00,WUHU21623XXSP,2013-02-02 01:14:00,
2013-02-01 19:19:00,27.3,-9.6,30.36,SE,135,0.0,0.0,19,0.00,,,0.00,WUHU21623XXSP,2013-02-02 01:19:00,
2013-02-01 19:24:00,27.0,-8.8,30.36,SE,135,0.0,0.0,20,0.00,,,0.00,WUHU21623XXSP,2013-02-02 01:24:00,
2013-02-01 19:29:00,26.8,-8.1,30.36,SE,135,0.0,0.0,21,0.00,,,0.00,WUHU21623XXSP,2013-02-02 01:29:00,
2013-02-01 19:34:00,26.4,-5.9,30.36,SE,135,0.0,0.0,24,0.00,,,0.00,WUHU21623XXSP,2013-02-02 01:34:00,
2013-02-01 19:39:00,26.1,-4.5,30.36,SE,135,0.0,0.0,26,0.00,,,0.00,WUHU21623XXSP,2013-02-02 01:39:00,
2013-02-01 19:44:00,25.9,-3.0,30.36,SE,135,0.0,0.0,28,0.00,,,0.00,WUHU21623XXSP,2013-02-02 01:44:00,
2013-02-01 19:49:00,25.5,-2.5,30.36,SE,135,0.0,0.0,29,0.00,,,0.00,WUHU21623XXSP,2013-02-02 01:49:00,
2013-02-01 19:54:00,25.5,-1.0,30.35,SE,135,0.0,0.0,31,0.00,,,0.00,WUHU21623XXSP,2013-02-02 01:54:00,
2013-02-01 19:59:00,25.5,0.8,30.35,SE,135,0.0,0.0,34,0.00,,,0.00,WUHU21623XXSP,2013-02-02 01:59:00,
2013-02-01 20:04:00,25.3,1.9,30.35,SE,135,0.0,0.0,36,0.00,,,0.00,WUHU21623XXSP,2013-02-02 02:04:00,
2013-02-01 20:09:00,25.5,2.7,30.35,SE,135,0.0,0.0,37,0.00,,,0.00,WUHU21623XXSP,2013-02-02 02:09:00,
2013-02-01 20:14:00,25.3,2.6,30.36,SE,135,0.0,0.0,37,0.00,,,0.00,WUHU21623XXSP,2013-02-02 02:14:00,
2013-02-01 20:19:00,25.3,2.6,30.36,SE,135,0.0,0.0,37,0.00,,,0.00,WUHU21623XXSP,2013-02-02 02:19:00,
2013-02-01 20:24:00,25.3,3.2,30.35,SE,135,0.0,0.0,38,0.00,,,0.00,WUHU21623XXSP,2013-02-02 02:24:00,
2013-02-01 20:29:00,25.3,3.2,30.36,SE,135,0.0,0.0,38,0.00,,,0.00,WUHU21623XXSP,2013-02-02 02:29:00,
2013-02-01 20:34:00,25.2,3.0,30.35,SE,135,0.0,0.0,38,0.00,,,0.00,WUHU21623XXSP,2013-02-02 02:34:00,
2013-02-01 20:39:00,25.2,3.6,30.36,SE,135,0.0,0.0,39,0.00,,,0.00,WUHU21623XXSP,2013-02-02 02:39:00,
2013-02-01 20:44:00,25.2,3.6,30.35,SE,135,0.0,0.0,39,0.00,,,0.00,WUHU21623XXSP,2013-02-02 02:44:00,
2013-02-01 20:49:00,25.0,4.1,30.34,SE,135,1.8,2.7,40,0.00,,,0.00,WUHU21623XXSP,2013-02-02 02:49:00,
2013-02-01 20:54:00,25.0,4.1,30.34,SE,135,1.3,2.7,40,0.00,,,0.00,WUHU21623XXSP,2013-02-02 02:54:00,
2013-02-01 20:59:00,25.0,4.6,30.34,SE,135,2.2,2.2,41,0.00,,,0.00,WUHU21623XXSP,2013-02-02 02:59:00,
2013-02-01 21:04:00,25.0,4.6,30.34,SE,135,0.0,3.1,41,0.00,,,0.00,WUHU21623XXSP,2013-02-02 03:04:00,
2013-02-01 21:09:00,25.0,4.6,30.34,SE,135,0.0,3.1,41,0.00,,,0.00,WUHU21623XXSP,2013-02-02 03:09:00,
2013-02-01 21:14:00,25.0,4.6,30.33,SE,135,0.0,0.0,41,0.00,,,0.00,WUHU21623XXSP,2013-02-02 03:14:00,
2013-02-01 21:19:00,25.0,5.1,30.33,SE,135,0.0,0.0,42,0.00,,,0.00,WUHU21623XXSP,2013-02-02 03:19:00,
2013-02-01 21:24:00,25.0,5.1,30.33,SE,135,0.0,0.0,42,0.00,,,0.00,WUHU21623XXSP,2013-02-02 03:24:00,
2013-02-01 21:29:00,24.6,4.7,30.33,SE,135,2.0,2.0,42,0.00,,,0.00,WUHU21623XXSP,2013-02-02 03:29:00,
2013-02-01 21:34:00,24.6,4.7,30.32,SE,135,2.2,2.2,42,0.00,,,0.00,WUHU21623XXSP,2013-02-02 03:34:00,
2013-02-01 21:39:00,24.4,4.6,30.32,SE,135,2.7,2.7,42,0.00,,,0.00,WUHU21623XXSP,2013-02-02 03:39:00,
2013-02-01 21:44:00,24.4,5.1,30.32,ESE,112,2.7,2.7,43,0.00,,,0.00,WUHU21623XXSP,2013-02-02 03:44:00,
2013-02-01 21:49:00,24.6,5.2,30.32,ESE,112,2.5,2.7,43,0.00,,,0.00,WUHU21623XXSP,2013-02-02 03:49:00,
2013-02-01 21:54:00,24.8,5.9,30.32,ESE,112,1.1,2.5,44,0.00,,,0.00,WUHU21623XXSP,2013-02-02 03:54:00,
2013-02-01 21:59:00,25.0,6.0,30.31,ESE,112,1.1,3.6,44,0.00,,,0.00,WUHU21623XXSP,2013-02-02 03:59:00,
2013-02-01 22:04:00,25.0,6.0,30.31,ESE,112,4.0,4.0,44,0.00,,,0.00,WUHU21623XXSP,2013-02-02 04:04:00,
2013-02-01 22:09:00,25.0,6.0,30.31,ESE,112,2.5,4.0,44,0.00,,,0.00,WUHU21623XXSP,2013-02-02 04:09:00,
2013-02-01 22:14:00,25.2,6.2,30.31,ESE,112,3.1,3.1,44,0.00,,,0.00,WUHU21623XXSP,2013-02-02 04:14:00,
2013-02-01 22:19:00,25.2,6.2,30.31,ESE,112,1.1,3.1,44,0.00,,,0.00,WUHU21623XXSP,2013-02-02 04:19:00,
2013-02-01 22:24:00,25.2,6.2,30.31,ESE,112,2.2,2.9,44,0.00,,,0.00,WUHU21623XXSP,2013-02-02 04:24:00,
2013-02-01 22:29:00,25.2,6.2,30.31,ESE,112,0.0,2.2,44,0.00,,,0.00,WUHU21623XXSP,2013-02-02 04:29:00,
2013-02-01 22:34:00,25.0,6.0,30.30,ESE,112,0.0,1.6,44,0.00,,,0.00,WUHU21623XXSP,2013-02-02 04:34:00,
2013-02-01 22:39:00,25.0,6.5,30.30,ESE,112,0.0,0.0,45,0.00,,,0.00,WUHU21623XXSP,2013-02-02 04:39:00,
2013-02-01 22:44:00,24.8,6.3,30.30,ESE,112,1.8,2.9,45,0.00,,,0.00,WUHU21623XXSP,2013-02-02 04:44:00,
2013-02-01 22:49:00,24.8,6.3,30.30,ESE,112,2.5,2.9,45,0.00,,,0.00,WUHU21623XXSP,2013-02-02 04:49:00,
2013-02-01 22:54:00,24.6,6.2,30.30,ESE,112,0.0,2.7,45,0.00,,,0.00,WUHU21623XXSP,2013-02-02 04:54:00,
2013-02-01 22:59:00,24.6,6.2,30.30,ESE,112,0.0,2.7,45,0.00,,,0.00,WUHU21623XXSP,2013-02-02 04:59:00,
2013-02-01 23:00:00,24.6,6.2,30.30,ESE,112,0.0,2.7,45,0.00,,,0.00,WUHU21623XXSP,2013-02-02 05:00:00,
2013-02-01 23:01:00,24.6,6.2,30.30,ESE,112,0.0,0.0,45,0.00,,,0.00,WUHU21623XXSP,2013-02-02 05:01:00,
2013-02-01 23:06:00,24.4,6.0,30.30,ESE,112,0.0,0.0,45,0.00,,,0.00,WUHU21623XXSP,2013-02-02 05:06:00,
2013-02-01 23:11:00,24.3,5.9,30.30,ESE,112,0.0,0.0,45,0.00,,,0.00,WUHU21623XXSP,2013-02-02 05:11:00,
2013-02-01 23:16:00,24.3,6.3,30.31,ESE,112,0.0,0.0,46,0.00,,,0.00,WUHU21623XXSP,2013-02-02 05:16:00,
2013-02-01 23:21:00,23.9,7.0,30.31,ESE,112,0.0,0.0,48,0.00,,,0.00,WUHU21623XXSP,2013-02-02 05:21:00,
2013-02-01 23:26:00,23.9,7.0,30.30,ESE,112,0.0,0.0,48,0.00,,,0.00,WUHU21623XXSP,2013-02-02 05:26:00,
2013-02-01 23:31:00,23.5,6.7,30.30,ESE,112,0.0,0.0,48,0.00,,,0.00,WUHU21623XXSP,2013-02-02 05:31:00,
2013-02-01 23:36:00,23.2,6.3,30.29,ESE,112,0.0,0.0,48,0.00,,,0.00,WUHU21623XXSP,2013-02-02 05:36:00,
2013-02-01 23:41:00,23.2,6.3,30.29,ESE,112,0.0,0.0,48,0.00,,,0.00,WUHU21623XXSP,2013-02-02 05:41:00,
2013-02-01 23:46:00,22.8,5.5,30.29,ESE,112,0.0,0.0,47,0.00,,,0.00,WUHU21623XXSP,2013-02-02 05:46:00,
2013-02-01 23:51:00,22.8,6.0,30.30,ESE,112,0.0,0.0,48,0.00,,,0.00,WUHU21623XXSP,2013-02-02 05:51:00,
2013-02-01 23:56:00,23.0,6.7,30.30,ESE,112,0.0,0.0,49,0.00,,,0.00,WUHU21623XXSP,2013-02-02 05:56:00,